When you browse on this site, cookies collect data to enhance your experience and personalize the content and advertising you see.
Visit our Privacy Policy to learn more. By continuing to use the site, you agree to this use of cookies and data.

Hourly Weather Saarbrucken

Today, 8 August, Saturday

Time Temperature Precipitation Wind Pressure Humidity
00:00 +23°C° 0 mm 1 mps 743 mmHg 78%
01:00 +23°C° 0 mm 1 mps 742 mmHg 79%
02:00 +22°C° 0 mm 1 mps 742 mmHg 80%
03:00 +22°C° 0 mm 1 mps 742 mmHg 82%
04:00 +23°C° 0 mm 1 mps 743 mmHg 79%
05:00 +23°C° 0 mm 1 mps 743 mmHg 77%
06:00 +24°C° 0 mm 1 mps 743 mmHg 75%
07:00 +26°C° 0 mm 1 mps 743 mmHg 66%
08:00 +28°C° 0 mm 2 mps 743 mmHg 57%
09:00 +30°C° 0 mm 2 mps 744 mmHg 49%
10:00 +32°C° 0 mm 2 mps 743 mmHg 46%
11:00 +34°C° 0 mm 2 mps 743 mmHg 42%
12:00 +35°C° 0 mm 2 mps 743 mmHg 39%
13:00 +35°C° 0 mm 2 mps 743 mmHg 38%
14:00 +34°C° 0 mm 1 mps 743 mmHg 37%
15:00 +34°C° 0 mm 1 mps 742 mmHg 36%
16:00 +33°C° 0 mm 1 mps 742 mmHg 43%
17:00 +31°C° 0 mm 1 mps 742 mmHg 49%
18:00 +30°C° 0 mm 1 mps 742 mmHg 56%
19:00 +28°C° 0 mm 1 mps 742 mmHg 58%
20:00 +27°C° 0 mm 1 mps 742 mmHg 60%
21:00 +25°C° 0 mm 1 mps 742 mmHg 62%
22:00 +25°C° 0 mm 1 mps 742 mmHg 64%
23:00 +24°C° 0 mm 1 mps 742 mmHg 66%

Tomorrow, 9 August, Sunday

Time Temperature Precipitation Wind Pressure Humidity
00:00 +23°C° 0 mm 1 mps 742 mmHg 68%
01:00 +23°C° 0 mm 1 mps 742 mmHg 69%
02:00 +23°C° 0 mm 1 mps 741 mmHg 70%
03:00 +22°C° 0 mm 1 mps 741 mmHg 72%
04:00 +23°C° 0 mm 1 mps 741 mmHg 71%
05:00 +24°C° 0 mm 1 mps 742 mmHg 70%
06:00 +25°C° 0 mm 1 mps 742 mmHg 70%
07:00 +27°C° 0 mm 1 mps 742 mmHg 63%
08:00 +29°C° 0 mm 2 mps 742 mmHg 57%
09:00 +31°C° 0 mm 2 mps 742 mmHg 51%
10:00 +32°C° 0 mm 2 mps 742 mmHg 46%
11:00 +34°C° 0 mm 2 mps 741 mmHg 41%
12:00 +35°C° 0 mm 2 mps 741 mmHg 36%
13:00 +35°C° 0 mm 2 mps 741 mmHg 36%
14:00 +35°C° 0 mm 2 mps 740 mmHg 36%
15:00 +35°C° 0 mm 2 mps 740 mmHg 35%
16:00 +34°C° 0 mm 2 mps 740 mmHg 41%
17:00 +31°C° 0 mm 2 mps 740 mmHg 47%
18:00 +29°C° 0 mm 1 mps 739 mmHg 53%
19:00 +28°C° 0 mm 2 mps 739 mmHg 55%
20:00 +27°C° 0 mm 2 mps 739 mmHg 57%
21:00 +25°C° 0 mm 2 mps 739 mmHg 59%
22:00 +25°C° 0 mm 1 mps 739 mmHg 62%
23:00 +24°C° 0 mm 1 mps 739 mmHg 66%

Day after tomorrow, 10 August, Monday

Time Temperature Precipitation Wind Pressure Humidity
00:00 +21°C° 0 mm 0 mps 739 mmHg 69%
01:00 +23°C° 0 mm 1 mps 739 mmHg 70%
02:00 +23°C° 0 mm 1 mps 739 mmHg 72%
03:00 +22°C° 0 mm 1 mps 739 mmHg 73%
04:00 +23°C° 0 mm 1 mps 739 mmHg 73%
05:00 +24°C° 0 mm 1 mps 739 mmHg 72%
06:00 +24°C° 0 mm 2 mps 739 mmHg 71%
07:00 +26°C° 0 mm 2 mps 739 mmHg 63%
08:00 +28°C° 0 mm 3 mps 739 mmHg 55%
09:00 +30°C° 0 mm 3 mps 739 mmHg 47%
10:00 +31°C° 0 mm 3 mps 739 mmHg 44%
11:00 +33°C° 0 mm 3 mps 739 mmHg 42%
12:00 +34°C° 0 mm 3 mps 739 mmHg 39%
13:00 +34°C° 0 mm 3 mps 739 mmHg 38%
14:00 +34°C° 0 mm 3 mps 738 mmHg 38%
15:00 +34°C° 0 mm 3 mps 738 mmHg 38%
16:00 +32°C° 0 mm 2 mps 738 mmHg 43%
17:00 +30°C° 0 mm 2 mps 738 mmHg 49%
18:00 +29°C° 0 mm 2 mps 738 mmHg 54%
19:00 +28°C° 0 mm 2 mps 738 mmHg 57%
20:00 +26°C° 0 mm 2 mps 738 mmHg 60%
21:00 +25°C° 0 mm 2 mps 739 mmHg 63%
22:00 +25°C° 0 mm 2 mps 739 mmHg 64%
23:00 +24°C° 0 mm 2 mps 739 mmHg 66%

11 August, Tuesday

Time Temperature Precipitation Wind Pressure Humidity
00:00 +24°C° 0 mm 2 mps 739 mmHg 67%
01:00 +23°C° 0 mm 2 mps 739 mmHg 69%
02:00 +23°C° 0 mm 1 mps 739 mmHg 71%
03:00 +22°C° 0 mm 1 mps 739 mmHg 73%
04:00 +23°C° 0 mm 1 mps 739 mmHg 72%
05:00 +23°C° 0 mm 1 mps 739 mmHg 71%
06:00 +24°C° 0 mm 1 mps 739 mmHg 71%
07:00 +26°C° 0 mm 1 mps 739 mmHg 64%
08:00 +28°C° 0 mm 1 mps 739 mmHg 58%
09:00 +30°C° 0 mm 2 mps 739 mmHg 52%
10:00 +31°C° 0 mm 1 mps 739 mmHg 48%
11:00 +33°C° 0 mm 1 mps 739 mmHg 44%
12:00 +34°C° 0 mm 1 mps 739 mmHg 39%
13:00 +34°C° 0 mm 1 mps 739 mmHg 39%
14:00 +34°C° 0 mm 1 mps 739 mmHg 38%
15:00 +34°C° 0 mm 1 mps 739 mmHg 37%
16:00 +33°C° 0.1 mm 1 mps 739 mmHg 43%
17:00 +31°C° 0.1 mm 1 mps 738 mmHg 49%
18:00 +30°C° 0.1 mm 1 mps 738 mmHg 55%
19:00 +28°C° 0.2 mm 1 mps 738 mmHg 59%
20:00 +27°C° 0.2 mm 1 mps 739 mmHg 63%
21:00 +25°C° 0.2 mm 2 mps 739 mmHg 67%
22:00 +24°C° 0.2 mm 1 mps 739 mmHg 70%
23:00 +24°C° 0.2 mm 1 mps 739 mmHg 72%

12 August, Wednesday

Time Temperature Precipitation Wind Pressure Humidity
00:00 +23°C° 0.2 mm 1 mps 739 mmHg 74%
01:00 +23°C° 0 mm 1 mps 739 mmHg 75%
02:00 +23°C° 0 mm 1 mps 739 mmHg 76%
03:00 +20°C° 0 mm 0 mps 738 mmHg 77%
04:00 +23°C° 0 mm 1 mps 739 mmHg 76%
05:00 +24°C° 0 mm 1 mps 739 mmHg 76%
06:00 +24°C° 0 mm 1 mps 739 mmHg 75%
07:00 +26°C° 0 mm 1 mps 739 mmHg 68%
08:00 +28°C° 0 mm 2 mps 739 mmHg 61%
09:00 +30°C° 0 mm 2 mps 739 mmHg 54%
10:00 +32°C° 0 mm 2 mps 739 mmHg 49%
11:00 +34°C° 0 mm 2 mps 739 mmHg 44%
12:00 +35°C° 0 mm 2 mps 739 mmHg 40%
13:00 +35°C° 0 mm 2 mps 739 mmHg 38%
14:00 +36°C° 0 mm 2 mps 738 mmHg 37%
15:00 +35°C° 0 mm 1 mps 738 mmHg 36%
16:00 +34°C° 0 mm 2 mps 738 mmHg 42%
17:00 +32°C° 0 mm 2 mps 737 mmHg 48%
18:00 +30°C° 0 mm 2 mps 737 mmHg 54%
19:00 +29°C° 0 mm 2 mps 737 mmHg 56%
20:00 +27°C° 0 mm 2 mps 738 mmHg 59%
21:00 +26°C° 0 mm 2 mps 738 mmHg 61%
22:00 +25°C° 0.4 mm 3 mps 738 mmHg 71%
23:00 +22°C° 0.4 mm 3 mps 738 mmHg 81%

13 August, Thursday

Time Temperature Precipitation Wind Pressure Humidity
00:00 +21°C° 0.4 mm 4 mps 739 mmHg 90%
01:00 +21°C° 0.1 mm 3 mps 739 mmHg 92%
02:00 +20°C° 0.1 mm 3 mps 739 mmHg 93%
03:00 +20°C° 0.1 mm 2 mps 739 mmHg 95%
04:00 +20°C° 0 mm 3 mps 739 mmHg 94%
05:00 +20°C° 0 mm 3 mps 739 mmHg 92%
06:00 +20°C° 0 mm 3 mps 739 mmHg 91%
07:00 +21°C° 0 mm 3 mps 740 mmHg 83%
08:00 +24°C° 0 mm 3 mps 740 mmHg 76%
09:00 +26°C° 0 mm 2 mps 740 mmHg 69%
10:00 +27°C° 0 mm 2 mps 740 mmHg 61%
11:00 +29°C° 0 mm 2 mps 740 mmHg 53%
12:00 +31°C° 0 mm 2 mps 740 mmHg 45%
13:00 +31°C° 0 mm 2 mps 740 mmHg 43%
14:00 +31°C° 0 mm 1 mps 739 mmHg 41%
15:00 +32°C° 0 mm 1 mps 739 mmHg 39%
16:00 +31°C° 0 mm 1 mps 739 mmHg 44%
17:00 +29°C° 0 mm 1 mps 739 mmHg 50%
18:00 +28°C° 0 mm 1 mps 739 mmHg 55%
19:00 +26°C° 0.1 mm 1 mps 739 mmHg 60%
20:00 +25°C° 0.1 mm 1 mps 739 mmHg 64%
21:00 +23°C° 0.1 mm 1 mps 739 mmHg 69%
22:00 +23°C° 0.2 mm 1 mps 739 mmHg 72%
23:00 +22°C° 0.2 mm 1 mps 739 mmHg 75%
Show more